Location: Go�ngahuizen
(53.0821°N, 5.8849°E)
Time: 23:19:21
(UTC+00:00)

In-Cosmos 22 Rocket - Pass Details

Date: 09 April 2020
Orbit: 790 x 888 km, 81.2° (Epoch: 27 May)

Event Time Altitude Azimuth Distance (km) Brightness Sun altitude
Rises 20:19:36 0° 345° (NNW) 3,507 8.3 -15.9°
Reaches altitude 10° 20:22:04 10° 344° (NNW) 2,566 7.5 -16.2°
Maximum altitude 20:27:55 74° 261° (W) 929 4.5 -16.9°
Enters shadow 20:32:43 15° 178° (S) 2,177 5.9 -17.5°
